^^
Saratoga-Weather Station Historical Data
Daily Summary for January 21, 2022 Units:  Metric    English   Both
Daily Weekly Monthly Yearly Custom
  High: Low: Average:
Temperature: 5.3 °C 1.2 °C 2.9 °C
Dew Point: 2.1 °C -0.6 °C 0.6 °C
Humidity: 93% 73% 85%
Wind Speed: 16.3km/h 0km/h 5.3km/h
Wind Gust: 20.9km/h - -
Wind- - WNW
Pressure: 1035.2 hPa 1032.2 hPa -
Precipitation: 0.0 mm    
Historical Graphs
 
 
Tabular Data for January 21, 2022
Time Temperature Dew Point Pressure Wind Wind Speed Wind Gust Humidity Rainfall Rate (Hourly) solar
00:04 1.6 °C -0.3 °C 1032.2 hPa WNW 4.7 km/h 6.4 km/h 87% 0.0 mm 0 W/m2
00:09 1.5 °C -0.3 °C 1032.2 hPa West 3.2 km/h 6.4 km/h 88% 0.0 mm 0 W/m2
00:14 1.4 °C -0.4 °C 1032.5 hPa NW 7.9 km/h 12.9 km/h 88% 0.0 mm 0 W/m2
00:19 1.4 °C -0.4 °C 1032.5 hPa West 4.7 km/h 9.7 km/h 88% 0.0 mm 0 W/m2
00:24 1.4 °C -0.4 °C 1032.5 hPa WSW 6.4 km/h 12.9 km/h 88% 0.0 mm 0 W/m2
00:29 1.5 °C -0.3 °C 1032.5 hPa NW 4.7 km/h 14.5 km/h 88% 0.0 mm 0 W/m2
00:34 1.6 °C -0.2 °C 1032.5 hPa WNW 3.2 km/h 12.9 km/h 88% 0.0 mm 0 W/m2
00:39 1.7 °C -0.1 °C 1032.8 hPa West 4.7 km/h 14.5 km/h 88% 0.0 mm 0 W/m2
00:44 1.7 °C -0.2 °C 1032.8 hPa WNW 4.7 km/h 14.5 km/h 87% 0.0 mm 0 W/m2
00:49 1.8 °C -0.1 °C 1032.8 hPa WNW 6.4 km/h 12.9 km/h 87% 0.0 mm 0 W/m2
00:54 1.9 °C 0 °C 1032.5 hPa WNW 4.7 km/h 9.7 km/h 87% 0.0 mm 0 W/m2
00:59 1.9 °C 0 °C 1032.8 hPa NW 1.4 km/h 9.7 km/h 87% 0.0 mm 0 W/m2
01:04 1.9 °C 0 °C 1032.5 hPa WSW 3.2 km/h 4.8 km/h 87% 0.0 mm 0 W/m2
01:09 1.8 °C -0.1 °C 1032.5 hPa West 1.4 km/h 9.7 km/h 87% 0.0 mm 0 W/m2
01:14 1.7 °C -0.2 °C 1032.5 hPa WNW 3.2 km/h 6.4 km/h 87% 0.0 mm 0 W/m2
01:19 1.6 °C -0.2 °C 1032.5 hPa WNW 6.4 km/h 6.4 km/h 88% 0.0 mm 0 W/m2
01:24 1.5 °C -0.3 °C 1032.5 hPa West 6.4 km/h 6.4 km/h 88% 0.0 mm 0 W/m2
01:29 1.4 °C -0.4 °C 1032.5 hPa NW 4.7 km/h 11.3 km/h 88% 0.0 mm 0 W/m2
01:34 1.4 °C -0.4 °C 1032.5 hPa NW 3.2 km/h 8 km/h 88% 0.0 mm 0 W/m2
01:39 1.4 °C -0.4 °C 1032.5 hPa WSW 4.7 km/h 6.4 km/h 88% 0.0 mm 0 W/m2
01:44 1.4 °C -0.4 °C 1032.5 hPa WNW 1.4 km/h 6.4 km/h 88% 0.0 mm 0 W/m2
01:49 1.4 °C -0.4 °C 1032.5 hPa WNW 1.4 km/h 3.2 km/h 88% 0.0 mm 0 W/m2
01:54 1.4 °C -0.4 °C 1032.5 hPa NW 1.4 km/h 4.8 km/h 88% 0.0 mm 0 W/m2
01:59 1.4 °C -0.4 °C 1032.5 hPa NW 1.4 km/h 4.8 km/h 88% 0.0 mm 0 W/m2
02:04 1.3 °C -0.5 °C 1032.5 hPa WNW 4.7 km/h 6.4 km/h 88% 0.0 mm 0 W/m2
02:09 1.3 °C -0.5 °C 1032.5 hPa West 6.4 km/h 6.4 km/h 88% 0.0 mm 0 W/m2
02:14 1.3 °C -0.5 °C 1032.5 hPa WNW 4.7 km/h 6.4 km/h 88% 0.0 mm 0 W/m2
02:19 1.3 °C -0.5 °C 1032.5 hPa West 6.4 km/h 11.3 km/h 88% 0.0 mm 0 W/m2
02:24 1.3 °C -0.5 °C 1032.5 hPa West 4.7 km/h 6.4 km/h 88% 0.0 mm 0 W/m2
02:29 1.3 °C -0.5 °C 1032.5 hPa West 4.7 km/h 4.8 km/h 88% 0.0 mm 0 W/m2
02:34 1.2 °C -0.6 °C 1032.5 hPa WNW 1.4 km/h 4.8 km/h 88% 0.0 mm 0 W/m2
02:39 1.2 °C -0.6 °C 1032.8 hPa WNW 1.4 km/h 6.4 km/h 88% 0.0 mm 0 W/m2
02:44 1.3 °C -0.3 °C 1032.8 hPa WNW 3.2 km/h 9.7 km/h 89% 0.0 mm 0 W/m2
02:49 1.3 °C -0.3 °C 1032.8 hPa West 4.7 km/h 6.4 km/h 89% 0.0 mm 0 W/m2
02:54 1.4 °C -0.2 °C 1032.8 hPa WSW 7.9 km/h 9.7 km/h 89% 0.0 mm 0 W/m2
02:59 1.5 °C -0.3 °C 1032.8 hPa West 9.7 km/h 9.7 km/h 88% 0.0 mm 0 W/m2
03:04 1.6 °C -0.2 °C 1032.8 hPa West 6.4 km/h 11.3 km/h 88% 0.0 mm 0 W/m2
03:09 1.6 °C -0.2 °C 1032.8 hPa West 9.7 km/h 9.7 km/h 88% 0.0 mm 0 W/m2
03:14 1.7 °C -0.1 °C 1032.8 hPa West 3.2 km/h 8 km/h 88% 0.0 mm 0 W/m2
03:19 1.7 °C -0.1 °C 1032.8 hPa WNW 4.7 km/h 9.7 km/h 88% 0.0 mm 0 W/m2
03:24 1.7 °C -0.1 °C 1032.8 hPa WNW 4.7 km/h 6.4 km/h 88% 0.0 mm 0 W/m2
03:29 1.7 °C -0.1 °C 1032.8 hPa WNW 1.4 km/h 8 km/h 88% 0.0 mm 0 W/m2
03:34 1.8 °C 0 °C 1032.8 hPa WNW 6.4 km/h 8 km/h 88% 0.0 mm 0 W/m2
03:39 1.8 °C -0.1 °C 1032.8 hPa NW 1.4 km/h 4.8 km/h 87% 0.0 mm 0 W/m2
03:44 1.7 °C -0.2 °C 1032.8 hPa West 6.4 km/h 8 km/h 87% 0.0 mm 0 W/m2
03:49 1.7 °C -0.2 °C 1032.5 hPa West 4.7 km/h 9.7 km/h 87% 0.0 mm 0 W/m2
03:54 1.7 °C -0.2 °C 1032.8 hPa WSW 3.2 km/h 6.4 km/h 87% 0.0 mm 0 W/m2
03:59 1.7 °C -0.2 °C 1032.8 hPa WNW 4.7 km/h 9.7 km/h 87% 0.0 mm 0 W/m2
04:04 1.7 °C -0.2 °C 1032.8 hPa West 4.7 km/h 6.4 km/h 87% 0.0 mm 0 W/m2
04:09 1.7 °C -0.2 °C 1032.8 hPa WNW 3.2 km/h 8 km/h 87% 0.0 mm 0 W/m2
04:14 1.7 °C -0.2 °C 1032.8 hPa WNW 3.2 km/h 6.4 km/h 87% 0.0 mm 0 W/m2
04:19 1.7 °C -0.2 °C 1032.8 hPa WNW 3.2 km/h 8 km/h 87% 0.0 mm 0 W/m2
04:24 1.7 °C -0.2 °C 1032.8 hPa WNW 1.4 km/h 6.4 km/h 87% 0.0 mm 0 W/m2
04:29 1.7 °C -0.2 °C 1032.8 hPa West 4.7 km/h 6.4 km/h 87% 0.0 mm 0 W/m2
04:34 1.7 °C -0.2 °C 1032.8 hPa WSW 3.2 km/h 9.7 km/h 87% 0.0 mm 0 W/m2
04:39 1.7 °C -0.2 °C 1032.8 hPa WSW 7.9 km/h 9.7 km/h 87% 0.0 mm 0 W/m2
04:44 1.7 °C -0.2 °C 1032.8 hPa West 4.7 km/h 9.7 km/h 87% 0.0 mm 0 W/m2
04:49 1.7 °C -0.2 °C 1032.8 hPa West 3.2 km/h 4.8 km/h 87% 0.0 mm 0 W/m2
04:54 1.7 °C -0.2 °C 1032.8 hPa WNW 3.2 km/h 4.8 km/h 87% 0.0 mm 0 W/m2
04:59 1.7 °C -0.2 °C 1032.8 hPa West 3.2 km/h 9.7 km/h 87% 0.0 mm 0 W/m2
05:04 1.7 °C -0.2 °C 1033.2 hPa West 4.7 km/h 4.8 km/h 87% 0.0 mm 0 W/m2
05:09 1.7 °C -0.2 °C 1033.2 hPa WNW 1.4 km/h 9.7 km/h 87% 0.0 mm 0 W/m2
05:14 1.7 °C -0.2 °C 1033.2 hPa WNW 4.7 km/h 4.8 km/h 87% 0.0 mm 0 W/m2
05:19 1.7 °C -0.2 °C 1033.2 hPa West 4.7 km/h 6.4 km/h 87% 0.0 mm 0 W/m2
05:24 1.7 °C -0.2 °C 1033.2 hPa WNW 3.2 km/h 6.4 km/h 87% 0.0 mm 0 W/m2
05:29 1.7 °C -0.2 °C 1033.2 hPa West 3.2 km/h 6.4 km/h 87% 0.0 mm 0 W/m2
05:34 1.6 °C -0.3 °C 1033.2 hPa WSW 4.7 km/h 6.4 km/h 87% 0.0 mm 0 W/m2
05:39 1.6 °C -0.3 °C 1033.2 hPa WNW 1.4 km/h 6.4 km/h 87% 0.0 mm 0 W/m2
05:44 1.6 °C -0.3 °C 1033.2 hPa NW 3.2 km/h 3.2 km/h 87% 0.0 mm 0 W/m2
05:49 1.6 °C -0.3 °C 1033.2 hPa Calm   6.4 km/h 87% 0.0 mm 0 W/m2
05:54 1.6 °C -0.3 °C 1033.2 hPa WNW 3.2 km/h 4.8 km/h 87% 0.0 mm 0 W/m2
05:59 1.6 °C -0.2 °C 1033.2 hPa WNW 4.7 km/h 6.4 km/h 88% 0.0 mm 0 W/m2
06:04 1.6 °C -0.2 °C 1033.5 hPa West 4.7 km/h 9.7 km/h 88% 0.0 mm 0 W/m2
06:09 1.6 °C -0.2 °C 1033.5 hPa West 4.7 km/h 9.7 km/h 88% 0.0 mm 0 W/m2
06:14 1.6 °C -0.2 °C 1033.2 hPa WNW 4.7 km/h 6.4 km/h 88% 0.0 mm 0 W/m2
06:19 1.6 °C -0.2 °C 1033.5 hPa WNW 6.4 km/h 9.7 km/h 88% 0.0 mm 0 W/m2
06:24 1.6 °C -0.2 °C 1033.5 hPa West 3.2 km/h 8 km/h 88% 0.0 mm 0 W/m2
06:29 1.6 °C -0.2 °C 1033.5 hPa Calm   9.7 km/h 88% 0.0 mm 0 W/m2
06:34 1.6 °C -0.2 °C 1033.5 hPa WNW 3.2 km/h 6.4 km/h 88% 0.0 mm 0 W/m2
06:39 1.6 °C -0.2 °C 1033.5 hPa West 4.7 km/h 6.4 km/h 88% 0.0 mm 0 W/m2
06:44 1.6 °C -0.2 °C 1033.9 hPa WNW 3.2 km/h 4.8 km/h 88% 0.0 mm 0 W/m2
06:49 1.6 °C -0.2 °C 1033.9 hPa West 4.7 km/h 6.4 km/h 88% 0.0 mm 0 W/m2
06:54 1.5 °C -0.3 °C 1033.9 hPa West 4.7 km/h 6.4 km/h 88% 0.0 mm 0 W/m2
06:59 1.6 °C -0.2 °C 1033.9 hPa West 3.2 km/h 6.4 km/h 88% 0.0 mm 0 W/m2
07:04 1.6 °C -0.2 °C 1033.5 hPa West 3.2 km/h 6.4 km/h 88% 0.0 mm 0 W/m2
07:09 1.6 °C -0.2 °C 1033.5 hPa West 3.2 km/h 9.7 km/h 88% 0.0 mm 0 W/m2
07:14 1.6 °C -0.2 °C 1033.5 hPa WNW 4.7 km/h 4.8 km/h 88% 0.0 mm 0 W/m2
07:19 1.5 °C -0.3 °C 1033.9 hPa West 4.7 km/h 9.7 km/h 88% 0.0 mm 0 W/m2
07:24 1.5 °C -0.3 °C 1033.9 hPa West 4.7 km/h 9.7 km/h 88% 0.0 mm 0 W/m2
07:29 1.5 °C -0.3 °C 1033.9 hPa West 4.7 km/h 8 km/h 88% 0.0 mm 0 W/m2
07:34 1.6 °C -0.2 °C 1033.9 hPa West 9.7 km/h 9.7 km/h 88% 0.0 mm 0 W/m2
07:39 1.6 °C -0.2 °C 1033.9 hPa WNW 4.7 km/h 9.7 km/h 88% 0.0 mm 0 W/m2
07:44 1.7 °C -0.2 °C 1033.9 hPa WNW 1.4 km/h 11.3 km/h 87% 0.0 mm 0 W/m2
07:49 1.7 °C -0.2 °C 1033.9 hPa WNW 3.2 km/h 6.4 km/h 87% 0.0 mm 0 W/m2
07:54 1.7 °C -0.2 °C 1033.9 hPa WNW 6.4 km/h 11.3 km/h 87% 0.0 mm 0 W/m2
07:59 1.7 °C -0.2 °C 1033.9 hPa WNW 3.2 km/h 6.4 km/h 87% 0.0 mm 0 W/m2
08:04 1.7 °C -0.2 °C 1034.2 hPa NW 1.4 km/h 4.8 km/h 87% 0.0 mm 0 W/m2
08:09 1.7 °C -0.2 °C 1034.2 hPa West 3.2 km/h 6.4 km/h 87% 0.0 mm 0 W/m2
08:14 1.7 °C -0.2 °C 1034.2 hPa WNW 6.4 km/h 9.7 km/h 87% 0.0 mm 0 W/m2
08:19 1.7 °C -0.2 °C 1034.2 hPa West 4.7 km/h 6.4 km/h 87% 0.0 mm 0 W/m2
08:24 1.6 °C -0.3 °C 1034.2 hPa WNW 3.2 km/h 4.8 km/h 87% 0.0 mm 5 W/m2
08:29 1.5 °C -0.4 °C 1034.2 hPa WNW 3.2 km/h 4.8 km/h 87% 0.0 mm 7 W/m2
08:34 1.5 °C -0.3 °C 1034.2 hPa WSW 3.2 km/h 6.4 km/h 88% 0.0 mm 7 W/m2
08:39 1.4 °C -0.4 °C 1034.2 hPa WNW 1.4 km/h 4.8 km/h 88% 0.0 mm 9 W/m2
08:44 1.4 °C -0.4 °C 1034.2 hPa West 1.4 km/h 3.2 km/h 88% 0.0 mm 11 W/m2
08:49 1.4 °C -0.4 °C 1034.2 hPa West 4.7 km/h 4.8 km/h 88% 0.0 mm 18 W/m2
08:54 1.4 °C -0.4 °C 1034.2 hPa West 3.2 km/h 3.2 km/h 88% 0.0 mm 19 W/m2
08:59 1.3 °C -0.5 °C 1034.2 hPa West 3.2 km/h 3.2 km/h 88% 0.0 mm 23 W/m2
09:04 1.3 °C -0.5 °C 1034.5 hPa West 4.7 km/h 4.8 km/h 88% 0.0 mm 28 W/m2
09:09 1.3 °C -0.5 °C 1034.5 hPa WSW 3.2 km/h 3.2 km/h 88% 0.0 mm 23 W/m2
09:14 1.4 °C -0.2 °C 1034.5 hPa West 3.2 km/h 6.4 km/h 89% 0.0 mm 35 W/m2
09:19 1.4 °C -0.2 °C 1034.5 hPa West 3.2 km/h 4.8 km/h 89% 0.0 mm 32 W/m2
09:24 1.5 °C -0.3 °C 1034.5 hPa NW 6.4 km/h 8 km/h 88% 0.0 mm 40 W/m2
09:30 1.7 °C -0.1 °C 1034.5 hPa West 3.2 km/h 11.3 km/h 88% 0.0 mm 40 W/m2
09:35 1.8 °C 0 °C 1034.5 hPa West 3.2 km/h 4.8 km/h 88% 0.0 mm 44 W/m2
09:40 1.9 °C 0.1 °C 1034.5 hPa West 3.2 km/h 8 km/h 88% 0.0 mm 58 W/m2
09:45 2 °C 0.1 °C 1034.5 hPa West 3.2 km/h 3.2 km/h 87% 0.0 mm 79 W/m2
09:50 2.2 °C 0.3 °C 1034.5 hPa WNW 3.2 km/h 6.4 km/h 87% 0.0 mm 83 W/m2
09:55 2.4 °C 0.3 °C 1034.5 hPa West 9.7 km/h 11.3 km/h 86% 0.0 mm 65 W/m2
10:00 2.6 °C 0.3 °C 1034.5 hPa WNW 3.2 km/h 11.3 km/h 85% 0.0 mm 35 W/m2
10:05 2.7 °C 0.4 °C 1034.5 hPa West 3.2 km/h 6.4 km/h 85% 0.0 mm 25 W/m2
10:10 2.7 °C 0.4 °C 1034.5 hPa West 4.7 km/h 9.7 km/h 85% 0.0 mm 37 W/m2
10:15 2.7 °C 0.4 °C 1034.9 hPa NNW 3.2 km/h 9.7 km/h 85% 0.0 mm 23 W/m2
10:20 2.7 °C 0.4 °C 1034.9 hPa NW 3.2 km/h 12.9 km/h 85% 0.0 mm 39 W/m2
10:25 2.7 °C 0.4 °C 1034.9 hPa West 3.2 km/h 3.2 km/h 85% 0.0 mm 47 W/m2
10:30 2.8 °C 0.5 °C 1034.5 hPa WSW 7.9 km/h 8 km/h 85% 0.0 mm 86 W/m2
10:35 2.9 °C 0.5 °C 1034.9 hPa WNW 1.4 km/h 4.8 km/h 84% 0.0 mm 79 W/m2
10:40 3.1 °C 0.7 °C 1034.9 hPa NW 1.4 km/h 1.6 km/h 84% 0.0 mm 67 W/m2
10:45 3.1 °C 0.7 °C 1034.9 hPa NE 1.4 km/h 1.6 km/h 84% 0.0 mm 107 W/m2
10:50 3.2 °C 0.8 °C 1034.9 hPa Calm   6.4 km/h 84% 0.0 mm 97 W/m2
10:55 3.3 °C 0.9 °C 1034.9 hPa West 4.7 km/h 6.4 km/h 84% 0.0 mm 53 W/m2
11:00 3.3 °C 0.7 °C 1035.2 hPa WNW 3.2 km/h 4.8 km/h 83% 0.0 mm 53 W/m2
11:05 3.3 °C 0.7 °C 1034.9 hPa WNW 1.4 km/h 4.8 km/h 83% 0.0 mm 51 W/m2
11:10 3.3 °C 0.9 °C 1034.9 hPa West 3.2 km/h 6.4 km/h 84% 0.0 mm 42 W/m2
11:15 3.3 °C 0.7 °C 1034.9 hPa West 4.7 km/h 9.7 km/h 83% 0.0 mm 51 W/m2
11:20 3.3 °C 0.7 °C 1034.9 hPa NNW 1.4 km/h 4.8 km/h 83% 0.0 mm 111 W/m2
11:25 3.4 °C 0.8 °C 1034.9 hPa NNW 1.4 km/h 8 km/h 83% 0.0 mm 109 W/m2
11:30 3.7 °C 0.7 °C 1035.2 hPa North 6.4 km/h 17.7 km/h 81% 0.0 mm 97 W/m2
11:35 3.9 °C 0.8 °C 1034.9 hPa WSW 6.4 km/h 12.9 km/h 80% 0.0 mm 91 W/m2
11:40 4 °C 0.9 °C 1034.9 hPa WNW 6.4 km/h 17.7 km/h 80% 0.0 mm 105 W/m2
11:45 4.1 °C 0.8 °C 1034.9 hPa WNW 3.2 km/h 11.3 km/h 79% 0.0 mm 91 W/m2
11:50 4.2 °C 0.9 °C 1034.9 hPa WNW 6.4 km/h 9.7 km/h 79% 0.0 mm 67 W/m2
11:55 4.2 °C 0.7 °C 1034.9 hPa WSW 3.2 km/h 14.5 km/h 78% 0.0 mm 58 W/m2
12:00 4.2 °C 0.7 °C 1034.5 hPa West 9.7 km/h 16.1 km/h 78% 0.0 mm 47 W/m2
12:05 4.3 °C 0.6 °C 1034.5 hPa WNW 6.4 km/h 14.5 km/h 77% 0.0 mm 49 W/m2
12:16 4.6 °C 0.9 °C 1034.5 hPa NW 4.7 km/h 6.4 km/h 77% 0.0 mm 51 W/m2
12:21 4.6 °C 0.6 °C 1034.5 hPa WNW 3.2 km/h 6.4 km/h 75% 0.0 mm 51 W/m2
12:26 4.7 °C 0.6 °C 1034.5 hPa WSW 6.4 km/h 12.9 km/h 75% 0.0 mm 44 W/m2
12:31 4.7 °C 0.5 °C 1034.2 hPa NW 4.7 km/h 17.7 km/h 74% 0.0 mm 46 W/m2
12:36 4.7 °C 0.6 °C 1034.2 hPa WNW 6.4 km/h 16.1 km/h 75% 0.0 mm 58 W/m2
12:41 4.7 °C 0.5 °C 1034.2 hPa WSW 7.9 km/h 17.7 km/h 74% 0.0 mm 54 W/m2
12:46 4.8 °C 0.6 °C 1034.5 hPa NW 3.2 km/h 9.7 km/h 74% 0.0 mm 40 W/m2
12:51 4.8 °C 0.4 °C 1034.2 hPa NNE 3.2 km/h 6.4 km/h 73% 0.0 mm 30 W/m2
12:56 4.9 °C 0.7 °C 1034.2 hPa WNW 3.2 km/h 9.7 km/h 74% 0.0 mm 35 W/m2
13:01 4.9 °C 0.5 °C 1034.2 hPa North 4.7 km/h 6.4 km/h 73% 0.0 mm 33 W/m2
13:06 5 °C 0.8 °C 1034.2 hPa West 6.4 km/h 11.3 km/h 74% 0.0 mm 46 W/m2
13:11 5.1 °C 0.7 °C 1034.2 hPa NW 1.4 km/h 16.1 km/h 73% 0.0 mm 58 W/m2
13:16 5.1 °C 0.7 °C 1034.2 hPa Calm   6.4 km/h 73% 0.0 mm 95 W/m2
13:21 5.2 °C 0.9 °C 1034.2 hPa West 4.7 km/h 16.1 km/h 74% 0.0 mm 56 W/m2
13:26 5.2 °C 0.8 °C 1034.2 hPa West 9.7 km/h 9.7 km/h 73% 0.0 mm 42 W/m2
13:31 5.1 °C 0.8 °C 1034.2 hPa Calm   12.9 km/h 74% 0.0 mm 49 W/m2
13:36 5 °C 0.9 °C 1034.2 hPa NW 6.4 km/h 9.7 km/h 75% 0.0 mm 113 W/m2
13:41 5.1 °C 0.8 °C 1034.5 hPa NNW 6.4 km/h 17.7 km/h 74% 0.0 mm 62 W/m2
13:46 5.1 °C 0.8 °C 1034.2 hPa NNW 7.9 km/h 16.1 km/h 74% 0.0 mm 51 W/m2
13:51 5 °C 0.9 °C 1034.2 hPa WSW 11.1 km/h 14.5 km/h 75% 0.0 mm 113 W/m2
13:56 5 °C 0.8 °C 1034.2 hPa WNW 6.4 km/h 16.1 km/h 74% 0.0 mm 69 W/m2
14:01 4.9 °C 0.8 °C 1033.9 hPa WNW 7.9 km/h 12.9 km/h 75% 0.0 mm 65 W/m2
14:06 4.9 °C 0.7 °C 1033.9 hPa West 6.4 km/h 9.7 km/h 74% 0.0 mm 30 W/m2
14:11 4.8 °C 0.7 °C 1033.9 hPa WNW 4.7 km/h 6.4 km/h 75% 0.0 mm 35 W/m2
14:16 4.9 °C 0.8 °C 1033.9 hPa WSW 6.4 km/h 12.9 km/h 75% 0.0 mm 65 W/m2
14:21 4.9 °C 0.8 °C 1033.9 hPa West 4.7 km/h 9.7 km/h 75% 0.0 mm 123 W/m2
14:26 5.2 °C 1.1 °C 1033.9 hPa West 16.3 km/h 16.1 km/h 75% 0.0 mm 127 W/m2
14:31 5.3 °C 1 °C 1033.9 hPa WNW 3.2 km/h 14.5 km/h 74% 0.0 mm 72 W/m2
14:36 5.3 °C 1 °C 1033.9 hPa West 11.1 km/h 11.3 km/h 74% 0.0 mm 84 W/m2
14:41 5.2 °C 0.8 °C 1033.9 hPa NW 7.9 km/h 12.9 km/h 73% 0.0 mm 102 W/m2
14:46 5.2 °C 0.9 °C 1033.9 hPa WNW 6.4 km/h 11.3 km/h 74% 0.0 mm 77 W/m2
14:51 5.1 °C 0.8 °C 1033.9 hPa West 4.7 km/h 6.4 km/h 74% 0.0 mm 100 W/m2
14:56 5.1 °C 1 °C 1033.9 hPa WNW 4.7 km/h 9.7 km/h 75% 0.0 mm 104 W/m2
15:01 5.1 °C 1.2 °C 1033.9 hPa NW 3.2 km/h 6.4 km/h 76% 0.0 mm 107 W/m2
15:06 5.1 °C 1 °C 1033.9 hPa West 4.7 km/h 6.4 km/h 75% 0.0 mm 91 W/m2
15:11 5.1 °C 1.2 °C 1033.9 hPa North 6.4 km/h 8 km/h 76% 0.0 mm 58 W/m2
15:16 5.1 °C 1.2 °C 1034.2 hPa WNW 4.7 km/h 4.8 km/h 76% 0.0 mm 53 W/m2
15:21 5.1 °C 1.2 °C 1034.2 hPa West 6.4 km/h 11.3 km/h 76% 0.0 mm 60 W/m2
15:26 5.1 °C 1.2 °C 1033.9 hPa WNW 4.7 km/h 6.4 km/h 76% 0.0 mm 32 W/m2
15:31 5.1 °C 1.2 °C 1033.9 hPa NW 11.3 km/h 11.3 km/h 76% 0.0 mm 49 W/m2
15:36 5.1 °C 1.2 °C 1033.9 hPa WSW 4.7 km/h 8 km/h 76% 0.0 mm 53 W/m2
15:41 5.1 °C 1.2 °C 1033.9 hPa West 3.2 km/h 6.4 km/h 76% 0.0 mm 67 W/m2
15:46 5.1 °C 1 °C 1034.2 hPa NW 4.7 km/h 6.4 km/h 75% 0.0 mm 40 W/m2
15:51 5.1 °C 1 °C 1034.2 hPa WNW 4.7 km/h 8 km/h 75% 0.0 mm 26 W/m2
15:56 5.1 °C 1 °C 1034.2 hPa West 4.7 km/h 9.7 km/h 75% 0.0 mm 12 W/m2
16:01 5 °C 0.9 °C 1034.2 hPa WNW 4.7 km/h 9.7 km/h 75% 0.0 mm 40 W/m2
16:06 5 °C 1.1 °C 1034.2 hPa WNW 6.4 km/h 6.4 km/h 76% 0.0 mm 23 W/m2
16:11 5 °C 1.1 °C 1034.2 hPa WSW 11.1 km/h 11.3 km/h 76% 0.0 mm 23 W/m2
16:16 4.9 °C 1 °C 1034.2 hPa West 6.4 km/h 8 km/h 76% 0.0 mm 30 W/m2
16:21 4.9 °C 1 °C 1034.2 hPa NW 6.4 km/h 8 km/h 76% 0.0 mm 26 W/m2
16:26 4.9 °C 1 °C 1034.5 hPa NW 9.7 km/h 14.5 km/h 76% 0.0 mm 21 W/m2
16:31 4.9 °C 1 °C 1034.5 hPa WNW 4.7 km/h 8 km/h 76% 0.0 mm 19 W/m2
16:36 4.9 °C 1 °C 1034.5 hPa NW 4.7 km/h 11.3 km/h 76% 0.0 mm 18 W/m2
16:41 4.9 °C 1.2 °C 1034.5 hPa NW 4.7 km/h 6.4 km/h 77% 0.0 mm 9 W/m2
16:46 4.8 °C 1.1 °C 1034.5 hPa NW 1.4 km/h 6.4 km/h 77% 0.0 mm 9 W/m2
16:51 4.7 °C 1 °C 1034.5 hPa West 3.2 km/h 4.8 km/h 77% 0.0 mm 7 W/m2
16:56 4.7 °C 1.2 °C 1034.5 hPa WNW 3.2 km/h 6.4 km/h 78% 0.0 mm 7 W/m2
17:01 4.6 °C 1.1 °C 1034.5 hPa WNW 4.7 km/h 6.4 km/h 78% 0.0 mm 7 W/m2
17:06 4.6 °C 1.1 °C 1034.2 hPa West 3.2 km/h 12.9 km/h 78% 0.0 mm 5 W/m2
17:11 4.5 °C 1.2 °C 1034.2 hPa WSW 4.7 km/h 11.3 km/h 79% 0.0 mm 0 W/m2
17:16 4.4 °C 1.3 °C 1034.2 hPa West 4.7 km/h 11.3 km/h 80% 0.0 mm 0 W/m2
17:21 4.4 °C 1.3 °C 1034.5 hPa West 4.7 km/h 6.4 km/h 80% 0.0 mm 0 W/m2
17:26 4.3 °C 1.3 °C 1034.5 hPa West 9.7 km/h 9.7 km/h 81% 0.0 mm 0 W/m2
17:31 4.2 °C 1.6 °C 1034.5 hPa West 4.7 km/h 9.7 km/h 83% 0.0 mm 0 W/m2
17:36 4.1 °C 1.6 °C 1034.5 hPa WSW 11.1 km/h 14.5 km/h 84% 0.0 mm 0 W/m2
17:41 3.9 °C 1.6 °C 1034.5 hPa WNW 11.1 km/h 14.5 km/h 85% 0.0 mm 0 W/m2
17:46 3.8 °C 1.7 °C 1034.5 hPa WSW 7.9 km/h 14.5 km/h 86% 0.0 mm 0 W/m2
17:51 3.7 °C 1.7 °C 1034.2 hPa WNW 4.7 km/h 17.7 km/h 87% 0.0 mm 0 W/m2
17:56 3.6 °C 1.6 °C 1034.2 hPa West 6.4 km/h 12.9 km/h 87% 0.0 mm 0 W/m2
18:01 3.6 °C 1.6 °C 1034.2 hPa WNW 4.7 km/h 17.7 km/h 87% 0.0 mm 0 W/m2
18:06 3.5 °C 1.5 °C 1034.2 hPa WSW 11.1 km/h 12.9 km/h 87% 0.0 mm 0 W/m2
18:11 3.4 °C 1.6 °C 1034.2 hPa WNW 6.4 km/h 16.1 km/h 88% 0.0 mm 0 W/m2
18:16 3.4 °C 1.6 °C 1034.2 hPa West 11.1 km/h 19.3 km/h 88% 0.0 mm 0 W/m2
18:21 3.4 °C 1.6 °C 1034.2 hPa West 6.4 km/h 14.5 km/h 88% 0.0 mm 0 W/m2
18:26 3.3 °C 1.5 °C 1034.2 hPa WNW 3.2 km/h 19.3 km/h 88% 0.0 mm 0 W/m2
18:31 3.3 °C 1.7 °C 1034.2 hPa WSW 3.2 km/h 11.3 km/h 89% 0.0 mm 0 W/m2
18:36 3.3 °C 1.7 °C 1034.2 hPa West 9.7 km/h 14.5 km/h 89% 0.0 mm 0 W/m2
18:41 3.2 °C 1.6 °C 1034.2 hPa WSW 7.9 km/h 11.3 km/h 89% 0.0 mm 0 W/m2
18:46 3.2 °C 1.6 °C 1034.2 hPa WNW 3.2 km/h 14.5 km/h 89% 0.0 mm 0 W/m2
18:51 3.2 °C 1.6 °C 1034.2 hPa WNW 3.2 km/h 6.4 km/h 89% 0.0 mm 0 W/m2
18:56 3.2 °C 1.6 °C 1034.2 hPa WNW 3.2 km/h 8 km/h 89% 0.0 mm 0 W/m2
19:01 3.1 °C 1.5 °C 1034.2 hPa WNW 6.4 km/h 19.3 km/h 89% 0.0 mm 0 W/m2
19:06 3.1 °C 1.5 °C 1034.2 hPa WSW 6.4 km/h 14.5 km/h 89% 0.0 mm 0 W/m2
19:11 3.2 °C 1.6 °C 1034.2 hPa West 6.4 km/h 11.3 km/h 89% 0.0 mm 0 W/m2
19:16 3.2 °C 1.6 °C 1034.5 hPa West 11.1 km/h 12.9 km/h 89% 0.0 mm 0 W/m2
19:21 3.2 °C 1.6 °C 1034.5 hPa West 4.7 km/h 12.9 km/h 89% 0.0 mm 0 W/m2
19:26 3.2 °C 1.6 °C 1034.5 hPa WSW 6.4 km/h 11.3 km/h 89% 0.0 mm 0 W/m2
19:31 3.2 °C 1.7 °C 1034.2 hPa West 11.1 km/h 11.3 km/h 90% 0.0 mm 0 W/m2
19:36 3.1 °C 1.6 °C 1034.5 hPa West 11.1 km/h 12.9 km/h 90% 0.0 mm 0 W/m2
19:41 3.1 °C 1.6 °C 1034.2 hPa NNW 4.7 km/h 16.1 km/h 90% 0.0 mm 0 W/m2
19:46 3.1 °C 1.6 °C 1034.2 hPa West 6.4 km/h 11.3 km/h 90% 0.0 mm 0 W/m2
19:51 3.1 °C 1.6 °C 1034.2 hPa West 13 km/h 16.1 km/h 90% 0.0 mm 0 W/m2
19:56 3 °C 1.5 °C 1034.2 hPa West 4.7 km/h 14.5 km/h 90% 0.0 mm 0 W/m2
20:01 2.9 °C 1.4 °C 1034.5 hPa NW 6.4 km/h 16.1 km/h 90% 0.0 mm 0 W/m2
20:06 2.9 °C 1.4 °C 1034.5 hPa West 11.1 km/h 14.5 km/h 90% 0.0 mm 0 W/m2
20:11 3 °C 1.5 °C 1034.5 hPa West 6.4 km/h 17.7 km/h 90% 0.0 mm 0 W/m2
20:16 2.9 °C 1.4 °C 1034.5 hPa West 14.3 km/h 16.1 km/h 90% 0.0 mm 0 W/m2
20:21 2.9 °C 1.4 °C 1034.5 hPa West 6.4 km/h 17.7 km/h 90% 0.0 mm 0 W/m2
20:26 2.9 °C 1.6 °C 1034.5 hPa WNW 11.1 km/h 16.1 km/h 91% 0.0 mm 0 W/m2
20:31 2.9 °C 1.6 °C 1034.5 hPa NW 7.9 km/h 20.9 km/h 91% 0.0 mm 0 W/m2
20:36 3 °C 1.7 °C 1034.5 hPa WNW 3.2 km/h 12.9 km/h 91% 0.0 mm 0 W/m2
20:41 3 °C 1.7 °C 1034.5 hPa West 14.3 km/h 20.9 km/h 91% 0.0 mm 0 W/m2
20:46 3 °C 1.7 °C 1034.5 hPa WNW 4.7 km/h 14.5 km/h 91% 0.0 mm 0 W/m2
20:51 3.1 °C 1.8 °C 1034.5 hPa WSW 13 km/h 12.9 km/h 91% 0.0 mm 0 W/m2
20:56 3.1 °C 1.8 °C 1034.5 hPa WNW 13 km/h 14.5 km/h 91% 0.0 mm 0 W/m2
21:01 3.1 °C 1.8 °C 1034.5 hPa West 11.1 km/h 16.1 km/h 91% 0.0 mm 0 W/m2
21:06 3.1 °C 1.8 °C 1034.5 hPa WNW 14.3 km/h 16.1 km/h 91% 0.0 mm 0 W/m2
21:11 3.1 °C 1.8 °C 1034.5 hPa West 14.3 km/h 14.5 km/h 91% 0.0 mm 0 W/m2
21:17 3.1 °C 1.8 °C 1034.5 hPa West 9.7 km/h 12.9 km/h 91% 0.0 mm 0 W/m2
21:22 3.1 °C 1.8 °C 1034.5 hPa WNW 11.1 km/h 12.9 km/h 91% 0.0 mm 0 W/m2
21:27 3.1 °C 1.8 °C 1034.5 hPa WNW 6.4 km/h 12.9 km/h 91% 0.0 mm 0 W/m2
21:32 3.1 °C 1.8 °C 1034.5 hPa WNW 9.7 km/h 12.9 km/h 91% 0.0 mm 0 W/m2
21:37 3.2 °C 1.9 °C 1034.5 hPa WSW 4.7 km/h 20.9 km/h 91% 0.0 mm 0 W/m2
21:42 3.1 °C 1.8 °C 1034.5 hPa West 9.7 km/h 14.5 km/h 91% 0.0 mm 0 W/m2
21:47 3.1 °C 1.8 °C 1034.5 hPa WNW 9.7 km/h 20.9 km/h 91% 0.0 mm 0 W/m2
21:52 3.1 °C 1.8 °C 1034.5 hPa WNW 7.9 km/h 16.1 km/h 91% 0.0 mm 0 W/m2
21:57 3.1 °C 1.8 °C 1034.2 hPa West 11.1 km/h 14.5 km/h 91% 0.0 mm 0 W/m2
22:02 3.1 °C 1.8 °C 1034.2 hPa WSW 6.4 km/h 16.1 km/h 91% 0.0 mm 0 W/m2
22:07 3.1 °C 1.8 °C 1034.2 hPa WSW 7.9 km/h 12.9 km/h 91% 0.0 mm 0 W/m2
22:12 3 °C 1.7 °C 1033.9 hPa WNW 3.2 km/h 9.7 km/h 91% 0.0 mm 0 W/m2
22:17 2.9 °C 1.6 °C 1034.2 hPa WSW 7.9 km/h 14.5 km/h 91% 0.0 mm 0 W/m2
22:22 2.9 °C 1.7 °C 1034.2 hPa West 9.7 km/h 14.5 km/h 92% 0.0 mm 0 W/m2
22:27 2.9 °C 1.7 °C 1034.2 hPa West 9.7 km/h 16.1 km/h 92% 0.0 mm 0 W/m2
22:32 2.9 °C 1.7 °C 1034.2 hPa NW 3.2 km/h 14.5 km/h 92% 0.0 mm 0 W/m2
22:37 2.9 °C 1.7 °C 1034.2 hPa NW 4.7 km/h 14.5 km/h 92% 0.0 mm 0 W/m2
22:42 2.9 °C 1.7 °C 1034.2 hPa WNW 11.1 km/h 11.3 km/h 92% 0.0 mm 0 W/m2
22:47 2.8 °C 1.6 °C 1034.2 hPa SW 4.7 km/h 12.9 km/h 92% 0.0 mm 0 W/m2
22:52 2.9 °C 1.7 °C 1034.2 hPa NW 4.7 km/h 9.7 km/h 92% 0.0 mm 0 W/m2
22:57 2.9 °C 1.7 °C 1034.2 hPa NW 4.7 km/h 6.4 km/h 92% 0.0 mm 0 W/m2
23:02 2.9 °C 1.7 °C 1034.2 hPa West 4.7 km/h 6.4 km/h 92% 0.0 mm 0 W/m2
23:07 2.9 °C 1.9 °C 1034.2 hPa West 4.7 km/h 14.5 km/h 93% 0.0 mm 0 W/m2
23:12 2.9 °C 1.9 °C 1034.2 hPa WSW 7.9 km/h 12.9 km/h 93% 0.0 mm 0 W/m2
23:17 2.9 °C 1.9 °C 1034.2 hPa West 4.7 km/h 11.3 km/h 93% 0.0 mm 0 W/m2
23:22 2.9 °C 1.9 °C 1034.2 hPa WNW 3.2 km/h 3.2 km/h 93% 0.0 mm 0 W/m2
23:27 2.9 °C 1.9 °C 1034.2 hPa WNW 3.2 km/h 9.7 km/h 93% 0.0 mm 0 W/m2
23:32 3 °C 2 °C 1034.2 hPa WNW 3.2 km/h 9.7 km/h 93% 0.0 mm 0 W/m2
23:37 3 °C 2 °C 1034.2 hPa WSW 6.4 km/h 6.4 km/h 93% 0.0 mm 0 W/m2
23:42 3.1 °C 2.1 °C 1034.2 hPa WSW 4.7 km/h 12.9 km/h 93% 0.0 mm 0 W/m2
23:47 3.1 °C 1.9 °C 1034.2 hPa NW 6.4 km/h 11.3 km/h 92% 0.0 mm 0 W/m2
23:52 3.2 °C 2 °C 1034.2 hPa WNW 7.9 km/h 12.9 km/h 92% 0.0 mm 0 W/m2
23:57 3.2 °C 2 °C 1034.2 hPa SW 4.7 km/h 9.7 km/h 92% 0.0 mm 0 W/m2
Juneau County Weather
Compliments of Weather Underground - 4 mb